Time,TemperatureF,DewpointF,PressureIn,WindDirection,WindDirectionDegrees,WindSpeedMPH,WindSpeedGustMPH,Humidity,HourlyPrecipIn,Conditions,Clouds,dailyrainin,SoftwareType,DateUTC
2013-07-05 00:01:00,65.9,65.3,30.10,SE,138,0.0,1.0,98,0.00,,,0.00,Wunderground v.1.15,2013-07-05 04:01:00,
2013-07-05 00:02:00,65.9,65.3,30.10,SSE,163,0.0,1.0,98,0.00,,,0.00,Wunderground v.1.15,2013-07-05 04:02:00,
2013-07-05 00:03:00,65.9,65.3,30.10,ESE,110,0.0,1.0,98,0.00,,,0.00,Wunderground v.1.15,2013-07-05 04:03:00,
2013-07-05 00:04:00,65.9,65.3,30.11,SE,142,0.0,1.0,98,0.00,,,0.00,Wunderground v.1.15,2013-07-05 04:04:00,
2013-07-05 00:10:00,66.0,65.4,30.11,SE,136,1.0,1.0,98,0.00,,,0.00,Wunderground v.1.15,2013-07-05 04:10:00,
2013-07-05 00:12:00,66.1,65.5,30.11,ESE,108,1.0,3.0,98,0.00,,,0.00,Wunderground v.1.15,2013-07-05 04:12:00,
2013-07-05 00:18:00,66.1,65.5,30.11,SE,124,1.0,3.0,98,0.00,,,0.00,Wunderground v.1.15,2013-07-05 04:18:00,
2013-07-05 00:24:00,66.1,65.5,30.11,ESE,112,2.0,2.0,98,0.00,,,0.00,Wunderground v.1.15,2013-07-05 04:24:00,
2013-07-05 00:29:00,66.1,65.5,30.11,ESE,119,1.0,2.0,98,0.00,,,0.00,Wunderground v.1.15,2013-07-05 04:29:00,
2013-07-05 00:35:00,66.1,65.2,30.11,SSE,153,1.0,3.0,97,0.00,,,0.01,Wunderground v.1.15,2013-07-05 04:35:00,
2013-07-05 00:41:00,66.1,65.2,30.11,ESE,119,1.0,1.0,97,0.00,,,0.01,Wunderground v.1.15,2013-07-05 04:41:00,
2013-07-05 00:46:00,66.1,65.2,30.10,ESE,104,0.0,1.0,97,0.00,,,0.01,Wunderground v.1.15,2013-07-05 04:46:00,
2013-07-05 00:52:00,66.1,65.2,30.10,SE,134,0.0,1.0,97,0.00,,,0.01,Wunderground v.1.15,2013-07-05 04:52:00,
2013-07-05 00:58:00,66.1,65.2,30.10,SSE,163,0.0,1.0,97,0.00,,,0.01,Wunderground v.1.15,2013-07-05 04:58:00,
2013-07-05 01:03:00,66.1,65.2,30.10,SE,129,0.0,0.0,97,0.00,,,0.02,Wunderground v.1.15,2013-07-05 05:03:00,
2013-07-05 01:09:00,66.2,65.3,30.10,East,101,0.0,0.0,97,0.00,,,0.02,Wunderground v.1.15,2013-07-05 05:09:00,
2013-07-05 01:14:00,66.2,65.3,30.10,ESE,103,0.0,0.0,97,0.00,,,0.02,Wunderground v.1.15,2013-07-05 05:14:00,
2013-07-05 01:20:00,66.2,65.3,30.10,SSE,158,0.0,0.0,97,0.00,,,0.02,Wunderground v.1.15,2013-07-05 05:20:00,
2013-07-05 01:25:00,66.2,65.3,30.10,SSE,153,0.0,0.0,97,0.00,,,0.02,Wunderground v.1.15,2013-07-05 05:25:00,
2013-07-05 01:31:00,66.2,65.6,30.10,SSE,166,0.0,0.0,98,0.00,,,0.02,Wunderground v.1.15,2013-07-05 05:31:00,
2013-07-05 01:37:00,66.3,65.7,30.10,ESE,120,0.0,1.0,98,0.00,,,0.03,Wunderground v.1.15,2013-07-05 05:37:00,
2013-07-05 01:42:00,66.3,65.7,30.10,SE,143,0.0,0.0,98,0.00,,,0.03,Wunderground v.1.15,2013-07-05 05:42:00,
2013-07-05 01:48:00,66.2,65.6,30.10,SSE,164,0.0,1.0,98,0.07,,,0.04,Wunderground v.1.15,2013-07-05 05:48:00,
2013-07-05 01:54:00,66.2,65.6,30.10,SE,131,0.0,1.0,98,0.06,,,0.04,Wunderground v.1.15,2013-07-05 05:54:00,
2013-07-05 01:59:00,66.2,65.6,30.10,SSE,148,0.0,1.0,98,0.04,,,0.04,Wunderground v.1.15,2013-07-05 05:59:00,
2013-07-05 02:05:00,66.1,65.5,30.10,SE,146,0.0,1.0,98,0.00,,,0.04,Wunderground v.1.15,2013-07-05 06:05:00,
2013-07-05 02:11:00,66.1,65.5,30.11,SSE,150,0.0,0.0,98,0.00,,,0.05,Wunderground v.1.15,2013-07-05 06:11:00,
2013-07-05 02:17:00,66.1,65.5,30.11,SE,129,0.0,1.0,98,0.11,,,0.06,Wunderground v.1.15,2013-07-05 06:17:00,
2013-07-05 02:23:00,66.1,65.5,30.10,ESE,115,0.0,1.0,98,0.07,,,0.07,Wunderground v.1.15,2013-07-05 06:23:00,
2013-07-05 02:29:00,66.1,65.5,30.10,SE,124,0.0,1.0,98,0.17,,,0.09,Wunderground v.1.15,2013-07-05 06:29:00,
2013-07-05 02:35:00,66.1,65.5,30.10,SE,124,0.0,0.0,98,0.12,,,0.10,Wunderground v.1.15,2013-07-05 06:35:00,
2013-07-05 02:40:00,66.0,65.4,30.10,ESE,108,0.0,0.0,98,0.08,,,0.11,Wunderground v.1.15,2013-07-05 06:40:00,
2013-07-05 02:46:00,66.0,65.4,30.10,SE,141,0.0,1.0,98,0.07,,,0.11,Wunderground v.1.15,2013-07-05 06:46:00,
2013-07-05 02:51:00,66.0,65.4,30.10,SE,145,0.0,0.0,98,0.05,,,0.12,Wunderground v.1.15,2013-07-05 06:51:00,
2013-07-05 02:57:00,66.0,65.4,30.10,East,96,0.0,1.0,98,0.09,,,0.13,Wunderground v.1.15,2013-07-05 06:57:00,
2013-07-05 03:02:00,66.0,65.4,30.10,East,92,0.0,1.0,98,0.17,,,0.14,Wunderground v.1.15,2013-07-05 07:02:00,
2013-07-05 03:08:00,66.0,65.4,30.10,ESE,117,0.0,1.0,98,0.11,,,0.15,Wunderground v.1.15,2013-07-05 07:08:00,
2013-07-05 03:14:00,66.0,65.4,30.09,SSE,148,0.0,0.0,98,0.09,,,0.16,Wunderground v.1.15,2013-07-05 07:14:00,
2013-07-05 03:19:00,66.0,65.4,30.09,SE,143,0.0,0.0,98,0.08,,,0.16,Wunderground v.1.15,2013-07-05 07:19:00,
2013-07-05 03:25:00,66.0,65.4,30.09,SE,143,0.0,0.0,98,0.07,,,0.17,Wunderground v.1.15,2013-07-05 07:25:00,
2013-07-05 03:30:00,66.0,65.4,30.09,ESE,121,0.0,0.0,98,0.07,,,0.18,Wunderground v.1.15,2013-07-05 07:30:00,
2013-07-05 03:35:00,66.1,65.5,30.09,SE,135,0.0,0.0,98,0.07,,,0.18,Wunderground v.1.15,2013-07-05 07:35:00,
2013-07-05 03:41:00,66.1,65.5,30.08,SE,132,0.0,0.0,98,0.05,,,0.18,Wunderground v.1.15,2013-07-05 07:41:00,
2013-07-05 03:47:00,66.1,65.5,30.08,ENE,67,0.0,1.0,98,0.00,,,0.18,Wunderground v.1.15,2013-07-05 07:47:00,
2013-07-05 03:53:00,66.2,65.6,30.08,East,85,1.0,2.0,98,0.00,,,0.18,Wunderground v.1.15,2013-07-05 07:53:00,
2013-07-05 03:59:00,66.2,65.6,30.08,ESE,112,1.0,2.0,98,0.00,,,0.18,Wunderground v.1.15,2013-07-05 07:59:00,
2013-07-05 04:05:00,66.2,65.6,30.08,SE,128,0.0,1.0,98,0.00,,,0.19,Wunderground v.1.15,2013-07-05 08:05:00,
2013-07-05 04:10:00,66.2,65.6,30.09,SSW,195,0.0,0.0,98,0.18,,,0.20,Wunderground v.1.15,2013-07-05 08:10:00,
2013-07-05 04:15:00,66.3,65.7,30.08,SSW,195,0.0,0.0,98,0.08,,,0.20,Wunderground v.1.15,2013-07-05 08:15:00,
2013-07-05 04:21:00,66.3,65.7,30.08,East,101,0.0,0.0,98,0.04,,,0.20,Wunderground v.1.15,2013-07-05 08:21:00,
2013-07-05 04:27:00,66.3,65.7,30.08,ENE,78,0.0,1.0,98,0.00,,,0.20,Wunderground v.1.15,2013-07-05 08:27:00,
2013-07-05 04:32:00,66.4,65.8,30.08,ENE,72,1.0,1.0,98,0.00,,,0.20,Wunderground v.1.15,2013-07-05 08:32:00,
2013-07-05 04:38:00,66.4,66.1,30.08,East,82,1.0,1.0,99,0.00,,,0.20,Wunderground v.1.15,2013-07-05 08:38:00,
2013-07-05 04:44:00,66.4,65.8,30.08,East,95,0.0,2.0,98,0.00,,,0.20,Wunderground v.1.15,2013-07-05 08:44:00,
2013-07-05 04:49:00,66.4,66.1,30.08,East,89,1.0,2.0,99,0.00,,,0.20,Wunderground v.1.15,2013-07-05 08:49:00,
2013-07-05 04:55:00,66.4,66.1,30.08,East,96,1.0,1.0,99,0.00,,,0.20,Wunderground v.1.15,2013-07-05 08:55:00,
2013-07-05 05:00:00,66.5,66.2,30.08,ESE,116,1.0,2.0,99,0.00,,,0.20,Wunderground v.1.15,2013-07-05 09:00:00,
2013-07-05 05:06:00,66.5,66.2,30.08,ESE,103,2.0,2.0,99,0.00,,,0.20,Wunderground v.1.15,2013-07-05 09:06:00,
2013-07-05 05:11:00,66.5,66.2,30.08,East,98,1.0,2.0,99,0.00,,,0.20,Wunderground v.1.15,2013-07-05 09:11:00,
2013-07-05 05:16:00,66.5,66.2,30.08,East,91,1.0,3.0,99,0.00,,,0.20,Wunderground v.1.15,2013-07-05 09:16:00,
2013-07-05 05:22:00,66.5,66.2,30.08,ESE,114,1.0,1.0,99,0.00,,,0.20,Wunderground v.1.15,2013-07-05 09:22:00,
2013-07-05 05:28:00,66.5,66.2,30.09,ESE,104,1.0,1.0,99,0.00,,,0.20,Wunderground v.1.15,2013-07-05 09:28:00,
2013-07-05 05:33:00,66.5,66.2,30.09,ESE,113,1.0,2.0,99,0.00,,,0.20,Wunderground v.1.15,2013-07-05 09:33:00,
2013-07-05 05:38:00,66.5,66.2,30.09,ESE,105,1.0,3.0,99,0.00,,,0.20,Wunderground v.1.15,2013-07-05 09:38:00,
2013-07-05 05:44:00,66.4,66.1,30.09,ESE,113,1.0,2.0,99,0.00,,,0.20,Wunderground v.1.15,2013-07-05 09:44:00,
2013-07-05 05:50:00,66.4,66.1,30.09,SE,136,0.0,0.0,99,0.00,,,0.20,Wunderground v.1.15,2013-07-05 09:50:00,
2013-07-05 05:56:00,66.4,66.1,30.09,ESE,110,0.0,0.0,99,0.00,,,0.20,Wunderground v.1.15,2013-07-05 09:56:00,
2013-07-05 06:01:00,66.4,66.1,30.09,ESE,123,0.0,0.0,99,0.00,,,0.20,Wunderground v.1.15,2013-07-05 10:01:00,
2013-07-05 06:07:00,66.4,66.1,30.09,East,97,0.0,0.0,99,0.00,,,0.20,Wunderground v.1.15,2013-07-05 10:07:00,
2013-07-05 06:13:00,66.5,66.2,30.09,ESE,113,0.0,0.0,99,0.00,,,0.20,Wunderground v.1.15,2013-07-05 10:13:00,
2013-07-05 06:18:00,66.5,66.2,30.09,East,84,0.0,1.0,99,0.00,,,0.20,Wunderground v.1.15,2013-07-05 10:18:00,
2013-07-05 06:23:00,66.5,66.2,30.09,ESE,106,0.0,1.0,99,0.00,,,0.20,Wunderground v.1.15,2013-07-05 10:23:00,
2013-07-05 06:29:00,66.5,66.2,30.09,ESE,110,0.0,1.0,99,0.00,,,0.20,Wunderground v.1.15,2013-07-05 10:29:00,
2013-07-05 06:34:00,66.5,66.2,30.09,ESE,104,1.0,2.0,99,0.00,,,0.20,Wunderground v.1.15,2013-07-05 10:34:00,
2013-07-05 06:41:00,66.5,66.2,30.09,East,89,1.0,1.0,99,0.00,,,0.20,Wunderground v.1.15,2013-07-05 10:41:00,
2013-07-05 06:47:00,66.6,66.3,30.09,East,88,0.0,1.0,99,0.00,,,0.20,Wunderground v.1.15,2013-07-05 10:47:00,
2013-07-05 06:53:00,66.6,66.3,30.09,ESE,104,0.0,0.0,99,0.00,,,0.20,Wunderground v.1.15,2013-07-05 10:53:00,
2013-07-05 06:59:00,66.6,66.3,30.09,ESE,114,0.0,2.0,99,0.00,,,0.20,Wunderground v.1.15,2013-07-05 10:59:00,
2013-07-05 07:05:00,66.7,66.4,30.09,East,96,1.0,1.0,99,0.00,,,0.20,Wunderground v.1.15,2013-07-05 11:05:00,
2013-07-05 07:10:00,66.7,66.4,30.09,ESE,112,1.0,1.0,99,0.00,,,0.20,Wunderground v.1.15,2013-07-05 11:10:00,
2013-07-05 07:16:00,66.8,66.5,30.10,ESE,123,1.0,2.0,99,0.00,,,0.20,Wunderground v.1.15,2013-07-05 11:16:00,
2013-07-05 07:22:00,66.8,66.5,30.10,ESE,106,1.0,1.0,99,0.00,,,0.20,Wunderground v.1.15,2013-07-05 11:22:00,
2013-07-05 07:27:00,66.9,66.6,30.10,SE,125,0.0,1.0,99,0.00,,,0.20,Wunderground v.1.15,2013-07-05 11:27:00,
2013-07-05 07:33:00,67.0,66.7,30.10,ESE,123,0.0,1.0,99,0.00,,,0.20,Wunderground v.1.15,2013-07-05 11:33:00,
2013-07-05 07:39:00,67.0,66.7,30.10,East,95,0.0,1.0,99,0.00,,,0.20,Wunderground v.1.15,2013-07-05 11:39:00,
2013-07-05 07:45:00,67.1,66.8,30.11,SSE,148,0.0,2.0,99,0.00,,,0.20,Wunderground v.1.15,2013-07-05 11:45:00,
2013-07-05 07:51:00,67.2,66.9,30.11,SSE,164,0.0,0.0,99,0.00,,,0.20,Wunderground v.1.15,2013-07-05 11:51:00,
2013-07-05 07:57:00,67.3,67.0,30.11,ESE,105,0.0,0.0,99,0.00,,,0.20,Wunderground v.1.15,2013-07-05 11:57:00,
2013-07-05 08:03:00,67.5,67.2,30.11,ESE,120,0.0,1.0,99,0.00,,,0.20,Wunderground v.1.15,2013-07-05 12:03:00,
2013-07-05 08:08:00,67.5,67.2,30.11,ESE,119,0.0,1.0,99,0.00,,,0.20,Wunderground v.1.15,2013-07-05 12:08:00,
2013-07-05 08:14:00,67.8,67.5,30.11,ESE,119,0.0,0.0,99,0.00,,,0.20,Wunderground v.1.15,2013-07-05 12:14:00,
2013-07-05 08:20:00,67.9,67.6,30.12,ESE,119,0.0,0.0,99,0.00,,,0.20,Wunderground v.1.15,2013-07-05 12:20:00,
2013-07-05 08:26:00,67.9,67.3,30.12,ESE,118,0.0,0.0,98,0.00,,,0.20,Wunderground v.1.15,2013-07-05 12:26:00,
2013-07-05 08:32:00,68.0,67.4,30.12,ESE,119,0.0,0.0,98,0.00,,,0.20,Wunderground v.1.15,2013-07-05 12:32:00,
2013-07-05 08:37:00,68.1,67.5,30.12,ESE,116,0.0,0.0,98,0.00,,,0.20,Wunderground v.1.15,2013-07-05 12:37:00,
2013-07-05 08:43:00,68.1,67.5,30.12,ESE,116,0.0,0.0,98,0.00,,,0.20,Wunderground v.1.15,2013-07-05 12:43:00,
2013-07-05 08:49:00,68.2,67.6,30.13,ESE,115,0.0,0.0,98,0.00,,,0.20,Wunderground v.1.15,2013-07-05 12:49:00,
2013-07-05 08:55:00,68.3,67.7,30.13,ESE,115,0.0,0.0,98,0.00,,,0.20,Wunderground v.1.15,2013-07-05 12:55:00,
2013-07-05 09:00:00,68.4,67.8,30.13,NNE,20,0.0,0.0,98,0.00,,,0.20,Wunderground v.1.15,2013-07-05 13:00:00,
2013-07-05 09:06:00,68.6,68.0,30.13,NNE,20,0.0,0.0,98,0.00,,,0.20,Wunderground v.1.15,2013-07-05 13:06:00,
2013-07-05 09:12:00,68.8,68.2,30.13,NE,42,0.0,0.0,98,0.00,,,0.20,Wunderground v.1.15,2013-07-05 13:12:00,
2013-07-05 09:19:00,69.1,68.5,30.13,SSE,153,0.0,1.0,98,0.00,,,0.20,Wunderground v.1.15,2013-07-05 13:19:00,
2013-07-05 09:25:00,69.4,68.5,30.13,SE,139,0.0,1.0,97,0.00,,,0.20,Wunderground v.1.15,2013-07-05 13:25:00,
2013-07-05 09:32:00,69.8,68.9,30.14,ESE,114,0.0,1.0,97,0.00,,,0.20,Wunderground v.1.15,2013-07-05 13:32:00,
2013-07-05 09:37:00,69.9,69.0,30.14,South,175,1.0,4.0,97,0.00,,,0.20,Wunderground v.1.15,2013-07-05 13:37:00,
2013-07-05 09:43:00,70.2,69.3,30.14,SSE,150,2.0,2.0,97,0.00,,,0.20,Wunderground v.1.15,2013-07-05 13:43:00,
2013-07-05 09:48:00,70.2,69.0,30.14,SSE,162,1.0,2.0,96,0.00,,,0.20,Wunderground v.1.15,2013-07-05 13:48:00,
2013-07-05 09:54:00,70.3,69.1,30.14,South,175,1.0,1.0,96,0.00,,,0.20,Wunderground v.1.15,2013-07-05 13:54:00,
2013-07-05 09:59:00,70.4,69.2,30.14,South,172,1.0,3.0,96,0.00,,,0.20,Wunderground v.1.15,2013-07-05 13:59:00,
2013-07-05 10:05:00,70.5,69.3,30.14,East,98,1.0,3.0,96,0.00,,,0.20,Wunderground v.1.15,2013-07-05 14:05:00,
2013-07-05 10:11:00,70.7,69.2,30.14,SW,214,1.0,3.0,95,0.00,,,0.20,Wunderground v.1.15,2013-07-05 14:11:00,
2013-07-05 10:17:00,71.2,70.0,30.14,South,187,2.0,3.0,96,0.00,,,0.20,Wunderground v.1.15,2013-07-05 14:17:00,
2013-07-05 10:22:00,71.7,70.2,30.14,SSE,163,1.0,2.0,95,0.00,,,0.20,Wunderground v.1.15,2013-07-05 14:22:00,
2013-07-05 10:28:00,72.1,70.3,30.13,SE,131,2.0,3.0,94,0.00,,,0.20,Wunderground v.1.15,2013-07-05 14:28:00,
2013-07-05 10:34:00,72.1,70.3,30.14,SE,131,2.0,3.0,94,0.00,,,0.20,Wunderground v.1.15,2013-07-05 14:34:00,
2013-07-05 10:40:00,72.0,69.9,30.14,South,188,2.0,2.0,93,0.00,,,0.20,Wunderground v.1.15,2013-07-05 14:40:00,
2013-07-05 10:45:00,71.8,69.7,30.14,SSE,159,2.0,3.0,93,0.00,,,0.21,Wunderground v.1.15,2013-07-05 14:45:00,
2013-07-05 10:51:00,71.5,69.4,30.14,West,260,1.0,5.0,93,0.00,,,0.21,Wunderground v.1.15,2013-07-05 14:51:00,
2013-07-05 10:57:00,71.4,69.6,30.13,SSE,152,1.0,5.0,94,0.00,,,0.21,Wunderground v.1.15,2013-07-05 14:57:00,
2013-07-05 11:02:00,72.0,70.5,30.13,SE,145,1.0,1.0,95,0.00,,,0.21,Wunderground v.1.15,2013-07-05 15:02:00,
2013-07-05 11:08:00,72.8,70.7,30.13,South,169,1.0,1.0,93,0.00,,,0.21,Wunderground v.1.15,2013-07-05 15:08:00,
2013-07-05 11:14:00,73.8,72.0,30.14,SSW,204,1.0,1.0,94,0.00,,,0.21,Wunderground v.1.15,2013-07-05 15:14:00,
2013-07-05 11:20:00,74.4,70.9,30.14,WSW,239,1.0,2.0,89,0.00,,,0.21,Wunderground v.1.15,2013-07-05 15:20:00,
2013-07-05 11:26:00,75.0,71.2,30.14,SSE,148,3.0,4.0,88,0.00,,,0.21,Wunderground v.1.15,2013-07-05 15:26:00,
2013-07-05 11:32:00,75.0,71.2,30.14,WSW,242,3.0,3.0,88,0.00,,,0.21,Wunderground v.1.15,2013-07-05 15:32:00,
2013-07-05 11:38:00,75.2,71.7,30.13,SSE,167,2.0,5.0,89,0.00,,,0.21,Wunderground v.1.15,2013-07-05 15:38:00,
2013-07-05 11:44:00,75.8,72.0,30.13,SSW,207,2.0,4.0,88,0.00,,,0.21,Wunderground v.1.15,2013-07-05 15:44:00,
2013-07-05 11:50:00,76.0,71.8,30.13,South,183,2.0,2.0,87,0.00,,,0.21,Wunderground v.1.15,2013-07-05 15:50:00,
2013-07-05 11:52:00,76.0,71.8,30.13,SSE,157,2.0,2.0,87,0.00,,,0.21,Wunderground v.1.15,2013-07-05 15:52:00,
2013-07-05 11:58:00,76.1,71.9,30.13,SE,142,2.0,4.0,87,0.00,,,0.21,Wunderground v.1.15,2013-07-05 15:58:00,
2013-07-05 12:03:00,76.3,71.1,30.12,SSW,212,3.0,8.0,84,0.00,,,0.21,Wunderground v.1.15,2013-07-05 16:03:00,
2013-07-05 12:09:00,76.9,71.7,30.12,SE,143,3.0,8.0,84,0.00,,,0.21,Wunderground v.1.15,2013-07-05 16:09:00,
2013-07-05 12:16:00,77.5,72.3,30.12,SSE,165,3.0,5.0,84,0.00,,,0.21,Wunderground v.1.15,2013-07-05 16:16:00,
2013-07-05 12:21:00,77.7,71.8,30.13,SSW,198,3.0,4.0,82,0.00,,,0.21,Wunderground v.1.15,2013-07-05 16:21:00,
2013-07-05 12:27:00,77.4,70.7,30.13,SSE,160,5.0,6.0,80,0.00,,,0.21,Wunderground v.1.15,2013-07-05 16:27:00,
2013-07-05 12:33:00,77.3,71.4,30.13,WSW,243,4.0,5.0,82,0.00,,,0.21,Wunderground v.1.15,2013-07-05 16:33:00,
2013-07-05 12:39:00,77.3,71.4,30.13,SSW,197,3.0,5.0,82,0.00,,,0.21,Wunderground v.1.15,2013-07-05 16:39:00,
2013-07-05 12:44:00,76.7,70.8,30.13,South,169,3.0,4.0,82,0.00,,,0.21,Wunderground v.1.15,2013-07-05 16:44:00,
2013-07-05 12:50:00,76.7,71.5,30.13,SSW,212,4.0,4.0,84,0.00,,,0.21,Wunderground v.1.15,2013-07-05 16:50:00,
2013-07-05 12:55:00,77.4,71.8,30.12,SSW,195,4.0,6.0,83,0.00,,,0.21,Wunderground v.1.15,2013-07-05 16:55:00,
2013-07-05 13:00:00,78.1,72.2,30.12,SSW,193,3.0,3.0,82,0.00,,,0.21,Wunderground v.1.15,2013-07-05 17:00:00,
2013-07-05 13:06:00,78.8,72.1,30.12,SSE,160,2.0,6.0,80,0.00,,,0.21,Wunderground v.1.15,2013-07-05 17:06:00,
2013-07-05 13:12:00,79.0,71.9,30.12,SW,226,2.0,8.0,79,0.00,,,0.21,Wunderground v.1.15,2013-07-05 17:12:00,
2013-07-05 13:17:00,78.9,71.5,30.12,SSW,204,3.0,8.0,78,0.00,,,0.21,Wunderground v.1.15,2013-07-05 17:17:00,
2013-07-05 13:23:00,78.8,71.7,30.12,SSW,203,4.0,6.0,79,0.00,,,0.21,Wunderground v.1.15,2013-07-05 17:23:00,
2013-07-05 13:29:00,78.4,71.3,30.12,SSE,147,3.0,6.0,79,0.00,,,0.21,Wunderground v.1.15,2013-07-05 17:29:00,
2013-07-05 13:34:00,78.3,71.2,30.12,WSW,249,2.0,3.0,79,0.00,,,0.21,Wunderground v.1.15,2013-07-05 17:34:00,
2013-07-05 13:40:00,78.4,71.3,30.12,South,184,3.0,3.0,79,0.00,,,0.21,Wunderground v.1.15,2013-07-05 17:40:00,
2013-07-05 13:46:00,78.3,71.6,30.12,SSW,197,2.0,3.0,80,0.00,,,0.21,Wunderground v.1.15,2013-07-05 17:46:00,
2013-07-05 13:50:00,78.5,72.2,30.11,SSW,201,2.0,7.0,81,0.00,,,0.21,Wunderground v.1.15,2013-07-05 17:50:00,
2013-07-05 13:56:00,79.2,72.5,30.11,WSW,246,2.0,7.0,80,0.00,,,0.21,Wunderground v.1.15,2013-07-05 17:56:00,
2013-07-05 14:02:00,79.6,72.1,30.11,East,80,2.0,5.0,78,0.00,,,0.21,Wunderground v.1.15,2013-07-05 18:02:00,
2013-07-05 14:08:00,79.9,72.4,30.11,SSE,158,3.0,6.0,78,0.00,,,0.21,Wunderground v.1.15,2013-07-05 18:08:00,
2013-07-05 14:14:00,79.4,72.7,30.11,WNW,293,4.0,6.0,80,0.00,,,0.21,Wunderground v.1.15,2013-07-05 18:14:00,
2013-07-05 14:19:00,78.5,72.5,30.12,West,277,4.0,6.0,82,0.00,,,0.21,Wunderground v.1.15,2013-07-05 18:19:00,
2013-07-05 14:24:00,78.5,72.9,30.12,SSW,197,3.0,6.0,83,0.00,,,0.21,Wunderground v.1.15,2013-07-05 18:24:00,
2013-07-05 14:30:00,78.8,72.8,30.11,East,92,3.0,4.0,82,0.00,,,0.21,Wunderground v.1.15,2013-07-05 18:30:00,
2013-07-05 14:36:00,79.0,72.7,30.11,WSW,243,2.0,6.0,81,0.00,,,0.21,Wunderground v.1.15,2013-07-05 18:36:00,
2013-07-05 14:42:00,78.9,72.2,30.11,South,187,3.0,4.0,80,0.00,,,0.21,Wunderground v.1.15,2013-07-05 18:42:00,
2013-07-05 14:47:00,79.4,72.3,30.10,SE,146,3.0,5.0,79,0.00,,,0.21,Wunderground v.1.15,2013-07-05 18:47:00,
2013-07-05 14:53:00,79.0,73.0,30.10,SW,231,2.0,4.0,82,0.00,,,0.21,Wunderground v.1.15,2013-07-05 18:53:00,
2013-07-05 14:59:00,79.1,73.5,30.10,SSW,207,1.0,4.0,83,0.00,,,0.22,Wunderground v.1.15,2013-07-05 18:59:00,
2013-07-05 15:05:00,79.6,75.0,30.10,WSW,249,1.0,2.0,86,0.00,,,0.22,Wunderground v.1.15,2013-07-05 19:05:00,
2013-07-05 15:10:00,79.8,74.5,30.10,WSW,239,1.0,1.0,84,0.00,,,0.22,Wunderground v.1.15,2013-07-05 19:10:00,
2013-07-05 15:16:00,80.2,72.7,30.10,SSW,201,2.0,4.0,78,0.00,,,0.22,Wunderground v.1.15,2013-07-05 19:16:00,
2013-07-05 15:22:00,80.1,72.6,30.10,SSE,158,2.0,4.0,78,0.00,,,0.22,Wunderground v.1.15,2013-07-05 19:22:00,
2013-07-05 15:27:00,79.9,72.8,30.10,SW,228,1.0,4.0,79,0.00,,,0.22,Wunderground v.1.15,2013-07-05 19:27:00,
2013-07-05 15:33:00,79.2,72.5,30.10,SW,215,2.0,3.0,80,0.00,,,0.22,Wunderground v.1.15,2013-07-05 19:33:00,
2013-07-05 15:39:00,78.2,72.3,30.10,WNW,291,3.0,4.0,82,0.00,,,0.23,Wunderground v.1.15,2013-07-05 19:39:00,
2013-07-05 15:40:00,78.0,72.8,30.10,SSW,194,2.0,3.0,84,0.23,,,0.23,Wunderground v.1.15,2013-07-05 19:40:00,
2013-07-05 15:45:00,76.4,71.2,30.10,SE,146,3.0,5.0,84,0.39,,,0.26,Wunderground v.1.15,2013-07-05 19:45:00,
2013-07-05 15:46:00,76.2,71.4,30.10,SW,228,3.0,5.0,85,0.39,,,0.26,Wunderground v.1.15,2013-07-05 19:46:00,
2013-07-05 15:51:00,74.9,70.8,30.09,SE,134,3.0,3.0,87,0.09,,,0.26,Wunderground v.1.15,2013-07-05 19:51:00,
2013-07-05 15:57:00,74.2,70.7,30.09,SSE,155,2.0,3.0,89,0.05,,,0.26,Wunderground v.1.15,2013-07-05 19:57:00,
2013-07-05 16:02:00,74.0,70.9,30.09,SSW,197,2.0,3.0,90,0.00,,,0.26,Wunderground v.1.15,2013-07-05 20:02:00,
2013-07-05 16:08:00,73.9,70.8,30.09,South,173,1.0,3.0,90,0.00,,,0.26,Wunderground v.1.15,2013-07-05 20:08:00,
2013-07-05 16:09:00,74.0,71.2,30.09,SE,131,1.0,3.0,91,0.00,,,0.26,Wunderground v.1.15,2013-07-05 20:09:00,
2013-07-05 16:15:00,74.1,71.3,30.09,SE,139,0.0,1.0,91,0.00,,,0.26,Wunderground v.1.15,2013-07-05 20:15:00,
2013-07-05 16:20:00,74.3,71.5,30.10,SW,231,0.0,1.0,91,0.00,,,0.26,Wunderground v.1.15,2013-07-05 20:20:00,
2013-07-05 16:26:00,74.4,71.6,30.10,South,187,1.0,1.0,91,0.00,,,0.26,Wunderground v.1.15,2013-07-05 20:26:00,
2013-07-05 16:31:00,74.4,71.6,30.11,ESE,113,0.0,0.0,91,0.00,,,0.26,Wunderground v.1.15,2013-07-05 20:31:00,
2013-07-05 16:33:00,74.4,71.6,30.11,SSE,159,0.0,1.0,91,0.00,,,0.27,Wunderground v.1.15,2013-07-05 20:33:00,
2013-07-05 16:39:00,74.6,72.1,30.10,ESE,116,0.0,1.0,92,0.09,,,0.28,Wunderground v.1.15,2013-07-05 20:39:00,
2013-07-05 16:44:00,74.9,72.4,30.10,SE,139,0.0,0.0,92,0.09,,,0.28,Wunderground v.1.15,2013-07-05 20:44:00,
2013-07-05 16:49:00,74.9,72.1,30.10,East,89,0.0,1.0,91,0.05,,,0.28,Wunderground v.1.15,2013-07-05 20:49:00,
2013-07-05 16:55:00,74.8,72.3,30.10,East,100,0.0,1.0,92,0.00,,,0.28,Wunderground v.1.15,2013-07-05 20:55:00,
2013-07-05 17:00:00,74.7,72.5,30.09,SSE,156,0.0,0.0,93,0.00,,,0.28,Wunderground v.1.15,2013-07-05 21:00:00,
2013-07-05 17:06:00,74.9,72.4,30.09,SSE,149,0.0,0.0,92,0.00,,,0.28,Wunderground v.1.15,2013-07-05 21:06:00,
2013-07-05 17:12:00,75.1,72.3,30.09,NNW,333,0.0,0.0,91,0.00,,,0.28,Wunderground v.1.15,2013-07-05 21:12:00,
2013-07-05 17:18:00,75.6,73.1,30.09,NNE,13,0.0,0.0,92,0.00,,,0.28,Wunderground v.1.15,2013-07-05 21:18:00,
2013-07-05 17:24:00,75.6,72.8,30.09,SSE,159,0.0,0.0,91,0.00,,,0.28,Wunderground v.1.15,2013-07-05 21:24:00,
2013-07-05 17:29:00,75.8,72.7,30.09,ENE,76,0.0,0.0,90,0.00,,,0.28,Wunderground v.1.15,2013-07-05 21:29:00,
2013-07-05 17:35:00,75.6,72.8,30.10,SE,136,0.0,0.0,91,0.00,,,0.29,Wunderground v.1.15,2013-07-05 21:35:00,
2013-07-05 17:41:00,75.3,72.5,30.09,SE,138,0.0,0.0,91,0.12,,,0.31,Wunderground v.1.15,2013-07-05 21:41:00,
2013-07-05 17:46:00,75.2,72.7,30.09,SE,131,0.0,1.0,92,0.06,,,0.31,Wunderground v.1.15,2013-07-05 21:46:00,
2013-07-05 17:52:00,75.0,72.2,30.09,ESE,121,0.0,0.0,91,0.04,,,0.31,Wunderground v.1.15,2013-07-05 21:52:00,
2013-07-05 17:57:00,75.1,72.6,30.09,ESE,122,0.0,0.0,92,0.00,,,0.31,Wunderground v.1.15,2013-07-05 21:57:00,
2013-07-05 18:02:00,75.2,72.4,30.09,ESE,121,0.0,0.0,91,0.00,,,0.31,Wunderground v.1.15,2013-07-05 22:02:00,
2013-07-05 18:09:00,75.5,72.7,30.09,SSE,166,0.0,0.0,91,0.00,,,0.31,Wunderground v.1.15,2013-07-05 22:09:00,
2013-07-05 18:14:00,75.4,72.6,30.09,SW,228,0.0,0.0,91,0.00,,,0.31,Wunderground v.1.15,2013-07-05 22:14:00,
2013-07-05 18:19:00,75.2,72.7,30.09,WSW,257,0.0,0.0,92,0.00,,,0.32,Wunderground v.1.15,2013-07-05 22:19:00,
2013-07-05 18:25:00,74.9,72.7,30.10,SW,217,0.0,0.0,93,0.10,,,0.33,Wunderground v.1.15,2013-07-05 22:25:00,
2013-07-05 18:30:00,74.6,72.4,30.10,WSW,245,0.0,0.0,93,1.00,,,0.42,Wunderground v.1.15,2013-07-05 22:30:00,
2013-07-05 18:36:00,73.5,71.4,30.10,SW,217,0.0,3.0,93,0.43,,,0.51,Wunderground v.1.15,2013-07-05 22:36:00,
2013-07-05 18:41:00,72.9,70.4,30.10,SSW,204,2.0,3.0,92,0.18,,,0.53,Wunderground v.1.15,2013-07-05 22:41:00,
2013-07-05 18:47:00,72.3,69.8,30.11,SE,141,1.0,3.0,92,0.14,,,0.55,Wunderground v.1.15,2013-07-05 22:47:00,
2013-07-05 18:53:00,71.6,69.5,30.10,SSE,149,1.0,1.0,93,0.11,,,0.56,Wunderground v.1.15,2013-07-05 22:53:00,
2013-07-05 18:59:00,71.4,69.6,30.10,SSE,149,1.0,2.0,94,0.05,,,0.56,Wunderground v.1.15,2013-07-05 22:59:00,
2013-07-05 19:04:00,71.4,69.6,30.09,SE,139,0.0,0.0,94,0.04,,,0.56,Wunderground v.1.15,2013-07-05 23:04:00,
2013-07-05 19:10:00,71.4,69.6,30.09,SSE,158,0.0,0.0,94,0.00,,,0.56,Wunderground v.1.15,2013-07-05 23:10:00,
2013-07-05 19:16:00,71.4,69.6,30.10,SSE,152,0.0,0.0,94,0.00,,,0.56,Wunderground v.1.15,2013-07-05 23:16:00,
2013-07-05 19:21:00,71.5,70.0,30.09,SSE,152,0.0,0.0,95,0.00,,,0.56,Wunderground v.1.15,2013-07-05 23:21:00,
2013-07-05 19:27:00,71.7,69.9,30.09,SSE,152,0.0,0.0,94,0.00,,,0.56,Wunderground v.1.15,2013-07-05 23:27:00,
2013-07-05 19:33:00,71.8,70.0,30.10,SSE,152,0.0,0.0,94,0.00,,,0.56,Wunderground v.1.15,2013-07-05 23:33:00,
2013-07-05 19:38:00,71.9,70.4,30.09,ENE,78,0.0,0.0,95,0.00,,,0.56,Wunderground v.1.15,2013-07-05 23:38:00,
2013-07-05 19:44:00,71.7,69.9,30.10,East,89,0.0,0.0,94,0.00,,,0.56,Wunderground v.1.15,2013-07-05 23:44:00,
2013-07-05 19:50:00,71.6,69.8,30.10,East,89,0.0,0.0,94,0.00,,,0.56,Wunderground v.1.15,2013-07-05 23:50:00,
2013-07-05 19:55:00,71.6,70.1,30.10,East,89,0.0,0.0,95,0.00,,,0.56,Wunderground v.1.15,2013-07-05 23:55:00,
2013-07-05 20:00:00,71.6,70.1,30.10,East,90,0.0,0.0,95,0.00,,,0.56,Wunderground v.1.15,2013-07-06 00:00:00,
2013-07-05 20:06:00,71.5,70.0,30.10,East,90,0.0,0.0,95,0.00,,,0.56,Wunderground v.1.15,2013-07-06 00:06:00,
2013-07-05 20:11:00,71.5,70.0,30.10,East,91,0.0,0.0,95,0.00,,,0.56,Wunderground v.1.15,2013-07-06 00:11:00,
2013-07-05 20:17:00,71.5,70.0,30.10,East,91,0.0,0.0,95,0.00,,,0.56,Wunderground v.1.15,2013-07-06 00:17:00,
2013-07-05 20:22:00,71.5,70.3,30.10,East,90,0.0,0.0,96,0.00,,,0.56,Wunderground v.1.15,2013-07-06 00:22:00,
2013-07-05 20:28:00,71.5,70.3,30.11,East,90,0.0,0.0,96,0.00,,,0.56,Wunderground v.1.15,2013-07-06 00:28:00,
2013-07-05 20:34:00,71.5,70.3,30.11,East,91,0.0,0.0,96,0.00,,,0.56,Wunderground v.1.15,2013-07-06 00:34:00,
2013-07-05 20:40:00,71.4,70.2,30.11,ESE,122,0.0,0.0,96,0.00,,,0.56,Wunderground v.1.15,2013-07-06 00:40:00,
2013-07-05 20:45:00,71.4,70.5,30.11,SE,128,0.0,0.0,97,0.00,,,0.56,Wunderground v.1.15,2013-07-06 00:45:00,
2013-07-05 20:51:00,71.4,70.5,30.11,SE,128,0.0,0.0,97,0.00,,,0.56,Wunderground v.1.15,2013-07-06 00:51:00,
2013-07-05 20:57:00,71.4,70.5,30.12,SE,129,0.0,0.0,97,0.00,,,0.56,Wunderground v.1.15,2013-07-06 00:57:00,
2013-07-05 21:02:00,71.5,70.6,30.11,SE,129,0.0,0.0,97,0.00,,,0.57,Wunderground v.1.15,2013-07-06 01:02:00,
2013-07-05 21:08:00,71.5,70.6,30.12,SE,129,0.0,0.0,97,0.18,,,0.59,Wunderground v.1.15,2013-07-06 01:08:00,
2013-07-05 21:14:00,71.4,70.5,30.12,SE,139,0.0,1.0,97,0.17,,,0.60,Wunderground v.1.15,2013-07-06 01:14:00,
2013-07-05 21:19:00,71.4,70.5,30.12,SSE,158,0.0,1.0,97,0.07,,,0.60,Wunderground v.1.15,2013-07-06 01:19:00,
2013-07-05 21:25:00,71.4,70.5,30.12,SSW,210,0.0,0.0,97,0.04,,,0.60,Wunderground v.1.15,2013-07-06 01:25:00,
2013-07-05 21:30:00,71.4,70.5,30.11,SSW,195,0.0,0.0,97,0.00,,,0.60,Wunderground v.1.15,2013-07-06 01:30:00,
2013-07-05 21:36:00,71.3,70.4,30.11,SSW,194,0.0,0.0,97,0.00,,,0.60,Wunderground v.1.15,2013-07-06 01:36:00,
2013-07-05 21:41:00,71.2,70.3,30.11,SSE,150,0.0,0.0,97,0.00,,,0.60,Wunderground v.1.15,2013-07-06 01:41:00,
2013-07-05 21:47:00,71.1,70.2,30.12,SSE,149,0.0,0.0,97,0.00,,,0.60,Wunderground v.1.15,2013-07-06 01:47:00,
2013-07-05 21:53:00,71.0,70.1,30.12,SSE,150,0.0,0.0,97,0.00,,,0.60,Wunderground v.1.15,2013-07-06 01:53:00,
2013-07-05 21:58:00,71.0,70.1,30.12,SSE,150,0.0,0.0,97,0.00,,,0.60,Wunderground v.1.15,2013-07-06 01:58:00,
2013-07-05 22:04:00,70.9,70.0,30.12,SSE,149,0.0,0.0,97,0.00,,,0.60,Wunderground v.1.15,2013-07-06 02:04:00,
2013-07-05 22:09:00,70.9,70.3,30.12,SSE,150,0.0,0.0,98,0.00,,,0.60,Wunderground v.1.15,2013-07-06 02:09:00,
2013-07-05 22:15:00,70.9,70.3,30.12,SSE,150,0.0,0.0,98,0.00,,,0.60,Wunderground v.1.15,2013-07-06 02:15:00,
2013-07-05 22:20:00,70.9,70.3,30.12,SSE,150,0.0,0.0,98,0.00,,,0.60,Wunderground v.1.15,2013-07-06 02:20:00,
2013-07-05 22:26:00,70.9,70.3,30.12,SSE,150,0.0,0.0,98,0.00,,,0.60,Wunderground v.1.15,2013-07-06 02:26:00,
2013-07-05 22:32:00,70.9,70.3,30.12,SSE,149,0.0,0.0,98,0.00,,,0.60,Wunderground v.1.15,2013-07-06 02:32:00,
2013-07-05 22:37:00,70.8,70.2,30.12,SSE,149,0.0,0.0,98,0.00,,,0.60,Wunderground v.1.15,2013-07-06 02:37:00,
2013-07-05 22:43:00,70.8,70.2,30.13,SSE,150,0.0,0.0,98,0.00,,,0.60,Wunderground v.1.15,2013-07-06 02:43:00,
2013-07-05 22:48:00,70.7,70.1,30.13,SSE,149,0.0,0.0,98,0.00,,,0.60,Wunderground v.1.15,2013-07-06 02:48:00,
2013-07-05 22:54:00,70.6,70.0,30.13,SSE,149,0.0,0.0,98,0.00,,,0.60,Wunderground v.1.15,2013-07-06 02:54:00,
2013-07-05 23:00:00,70.5,69.9,30.13,SE,142,0.0,0.0,98,0.00,,,0.60,Wunderground v.1.15,2013-07-06 03:00:00,
2013-07-05 23:06:00,70.5,69.9,30.13,SE,142,0.0,0.0,98,0.00,,,0.60,Wunderground v.1.15,2013-07-06 03:06:00,
2013-07-05 23:12:00,70.6,70.0,30.13,SE,142,0.0,0.0,98,0.00,,,0.60,Wunderground v.1.15,2013-07-06 03:12:00,
2013-07-05 23:18:00,70.6,70.0,30.13,SE,142,0.0,0.0,98,0.00,,,0.60,Wunderground v.1.15,2013-07-06 03:18:00,
2013-07-05 23:23:00,70.5,69.9,30.13,SE,142,0.0,0.0,98,0.00,,,0.60,Wunderground v.1.15,2013-07-06 03:23:00,
2013-07-05 23:25:00,70.6,70.0,30.13,SE,142,0.0,0.0,98,0.00,,,0.60,Wunderground v.1.15,2013-07-06 03:25:00,
2013-07-05 23:30:00,70.6,70.0,30.13,SE,142,0.0,0.0,98,0.00,,,0.60,Wunderground v.1.15,2013-07-06 03:30:00,
2013-07-05 23:36:00,70.6,70.0,30.13,SE,142,0.0,0.0,98,0.00,,,0.60,Wunderground v.1.15,2013-07-06 03:36:00,
2013-07-05 23:41:00,70.5,69.9,30.13,SE,142,0.0,0.0,98,0.00,,,0.60,Wunderground v.1.15,2013-07-06 03:41:00,
2013-07-05 23:47:00,70.4,69.8,30.13,SE,142,0.0,0.0,98,0.00,,,0.60,Wunderground v.1.15,2013-07-06 03:47:00,
2013-07-05 23:53:00,70.3,69.7,30.13,SE,142,0.0,0.0,98,0.00,,,0.60,Wunderground v.1.15,2013-07-06 03:53:00,
2013-07-05 23:59:00,70.3,69.7,30.13,SE,142,0.0,0.0,98,0.00,,,0.00,Wunderground v.1.15,2013-07-06 03:59:00,